sat.trackr.live / text

‹ back to catalog

STARLINK-1577

NORAD 46063 · 2020-055AN

PAYLOAD ACTIVE UNKNOWN

§ Identity

Operator
Country
US
Launch date
2020-08-07
Launch site
AFETR
Launch vehicle
Mass (kg)
RCS (m²)

Purposes: comms

External: N2YO · Heavens-Above · Gunter

§ Orbital elements

Epoch: 2026-05-25T02:26:49.831296Z

Period
94.01 min
Inclination
53.1599°
Eccentricity
0.0001300
Mean motion
15.31692745 rev/d
Perigee alt
469.9 km
Apogee alt
471.7 km
Semi-major
6,848.9 km
B*
2.2614e-5
RAAN
118.4854°
Arg perigee
95.8511°
Mean anomaly
264.2638°
Rev number
32,077

§ Raw data

STARLINK-15771 46063U 20055AN  26145.10196564  .00000337  00000+0  22614-4 0  99922 46063  53.1599 118.4854 0001300  95.8511 264.2638 15.31692745320770

JSON: /api/v1/satellites/46063 · /tle

For live sub-satellite position, see the globe view (requires WebGL).

§ Visibility from observer

Set your observer location to see the next 7 days of passes ≥ 10°. The values pass through the URL so the page stays shareable.

No JS? Fill the form by hand. The geolocation button needs JavaScript.